(19) Fortuna
ephemeris date magn radius delta ra dec elong phase
Today9 May 202512.42.211 AU3.001 AU05h17m+22°02'32.0°14.0°
Opposition12 Mar 202610.92.700 AU1.707 AU11h29m+01°38'178.3°0.6°
(19) Fortuna - 2025-05-09
astro.vanbuitenen.nl


 
-1 year
-1 month
-1 day
Now
+1 day
+1 month
+1 year

The interactive orbit chart above shows the body's path through the solar system and its position at the given date. Green and blue lines are shown perpendicular to the ecliptic plane: Green if the path is above the ecliptic plane, blue if it is below. (Left-click and drag to rotate the view; Right-click and drag to move the view; Use scroll wheel to zoom in our out.)

The orbital elements of Fortuna are:

            e (Eccentricity)                : 0.1578698
            a (Semimajor axis)              : 2.4429432
            i (Inclination)                 : 1.57334
            Ω (Longitude of ascending node) : 211.03056
            ω (Argument of perihelion)      : 182.64799
            M (Mean anomaly)                : 44.72456
            Epoch                           : 2025 May 05

            L (Longitude of perihelion)     : 213.67755
            B (Latitude of perihelion)      : -0.07268
            P (Orbital period in years)     : 3.82            
        

The light curve chart below shows the estimated development of the minor planet's magnitude.


The all-sky chart below shows the path of the minor planet over the same period as the light curve. The current position is marked yellow.





The following chart shows the path of the minor planet in the next few days. The field of view is optimized for (~10x50) binoculars and finderscopes. A more printer-friendly version of the same chart can be found below.




Ephemerides:
Date       Time       RA (2000)    DEC (2000)    delta   radius  elong  phase   PA    magn
2025-05-09 00:00 UT   05 17 57.6   +22 02 57     3.001    2.211   32.0   14.0    87   12.4 
2025-05-09 06:46 UT   05 18 34.2   +22 03 33     3.003    2.211   31.9   13.9    88   12.4 
2025-05-10 00:00 UT   05 20 07.5   +22 05 02     3.009    2.212   31.5   13.8    88   12.4 
2025-05-11 00:00 UT   05 22 17.6   +22 06 60     3.017    2.214   31.1   13.6    88   12.4 
2025-05-12 00:00 UT   05 24 27.7   +22 08 51     3.024    2.215   30.6   13.4    88   12.4 
2025-05-13 00:00 UT   05 26 37.8   +22 10 36     3.032    2.217   30.1   13.2    88   12.4 
2025-05-14 00:00 UT   05 28 48.0   +22 12 14     3.039    2.218   29.7   13.0    89   12.4 
2025-05-15 00:00 UT   05 30 58.2   +22 13 46     3.047    2.220   29.2   12.8    89   12.4 
2025-05-16 00:00 UT   05 33 08.5   +22 15 10     3.054    2.222   28.8   12.6    89   12.4 
2025-05-17 00:00 UT   05 35 18.8   +22 16 28     3.061    2.223   28.3   12.5    89   12.4 
2025-05-18 00:00 UT   05 37 29.2   +22 17 39     3.068    2.225   27.8   12.3    90   12.4 
2025-05-19 00:00 UT   05 39 39.5   +22 18 44     3.075    2.226   27.4   12.1    90   12.4 
2025-05-20 00:00 UT   05 41 49.9   +22 19 41     3.082    2.228   26.9   11.9    90   12.4 
2025-05-21 00:00 UT   05 44 00.3   +22 20 32     3.089    2.229   26.5   11.7    90   12.4 
2025-05-22 00:00 UT   05 46 10.8   +22 21 16     3.096    2.231   26.0   11.5    91   12.4 
2025-05-23 00:00 UT   05 48 21.2   +22 21 53     3.103    2.233   25.5   11.3    91   12.4 
2025-05-24 00:00 UT   05 50 31.6   +22 22 24     3.110    2.234   25.1   11.1    91   12.4 
2025-05-25 00:00 UT   05 52 42.0   +22 22 47     3.116    2.236   24.6   10.9    92   12.4 


    Terminology:
            
    delta:  distance between minor planet and earth in AU
    radius: distance between minor planet and sun in AU
    magn:   magnitude (brightness) estimate    
    ra:     right ascension in hours (24h = 360deg)
    dec:    declination in degrees
    elong:  elongation in degrees (angle sun-earth-minor planet)    
    phase:  phase angle in degrees (angle sun-minor planet-earth)        
    AU:     Astronomical Unit (mean distance between earth and sun: 149597870.7 km
    

Orbital elements provided by the MPC (Minor Planet Center).
Calculations by a modified version of AAPlus, a C# implementation of the AA+ project by PJ Naughter from the algorithms presented in the book "Astronomical Algorithms" by Jean Meeus.
NGC2000 dso catalog and star labels from VizieR as provided by the Strasbourg astronomical Data Center.
Tycho2 catalog from the ESO archive.